Overview Statistics Trail Chart Weather Telemetry Raw packets
 

This is the latest recevied weather packets stored in our database for station/object N1JOV-7. If no packets are shown the sender has not sent any weather packets the latest 10 day(s).

<< 39 40 41 42 43 44 45 >>
Time Temp. Humidity Pressure Rain* Wind** Luminosity Snow
1788045062 18.89° C 66% 1020.4 hPa 0 mm - - -
1788044462 19.44° C 64% 1020.5 hPa 0 mm - - -
1788043862 19.44° C 64% 1020.4 hPa 0 mm - - -
1788043261 20° C 62% 1020.7 hPa 0 mm - - -
1788042661 21.11° C 59% 1020.7 hPa 0 mm - - -
1788042061 21.11° C 58% 1020.7 hPa 0 mm - - -
1788041461 21.11° C 59% 1020.5 hPa 0 mm - - -
1788040861 21.67° C 60% 1020.4 hPa 0 mm - - -
1788040262 21.67° C 59% 1020.5 hPa 0 mm - - -
1788039662 22.22° C 56% 1020.4 hPa 0 mm - - -
1788039062 23.33° C 54% 1020.4 hPa 0 mm - - -
1788038462 23.33° C 53% 1020.7 hPa 0 mm - - -
1788037868 23.33° C 53% 1020.5 hPa 0 mm - - -
1788037262 22.78° C 54% 1020.7 hPa 0 mm - - -
1788036661 23.89° C 53% 1020.6 hPa 0 mm - - -
1788036061 23.89° C 52% 1020.4 hPa 0 mm - - -
1788035461 24.44° C 52% 1020.5 hPa 0 mm - - -
1788034861 24.44° C 51% 1020.6 hPa 0 mm - - -
1788034261 25° C 50% 1020.4 hPa 0 mm - - -
1788033662 25.56° C 48% 1020.3 hPa 0 mm - - -
1788033062 25.56° C 47% 1020.3 hPa 0 mm - - -
1788032462 26.11° C 43% 1020.6 hPa 0 mm - - -
1788031862 25.56° C 44% 1020.5 hPa 0 mm - - -
1788031262 26.11° C 44% 1020.6 hPa 0 mm - - -
1788030661 26.11° C 44% 1020.7 hPa 0 mm - - -

* Rain latest hour (hover to see other rain measurements)
** Current wind speed in m/s (hover to see current wind gust speed)